Time,TemperatureF,DewpointF,PressureIn,WindDirection,WindDirectionDegrees,WindSpeedMPH,WindSpeedGustMPH,Humidity,HourlyPrecipIn,Conditions,Clouds,dailyrainin,SolarRadiationWatts/m^2,SoftwareType,DateUTC
2013-06-13 00:01:00,73.1,69.7,29.74,NNW,333,0.0,0.0,89,0.00,,,0.00,0.00,VWS V14.01,2013-06-13 04:01:00,
2013-06-13 00:02:00,73.1,70.0,29.74,NNW,333,0.0,0.0,90,0.00,,,0.00,0.00,VWS V14.01,2013-06-13 04:02:00,
2013-06-13 00:08:00,73.0,69.9,29.74,NNW,333,0.0,0.0,90,0.00,,,0.00,0.00,VWS V14.01,2013-06-13 04:08:00,
2013-06-13 00:13:00,72.8,69.7,29.74,NNW,333,0.0,0.0,90,0.00,,,0.00,0.00,VWS V14.01,2013-06-13 04:13:00,
2013-06-13 00:18:00,72.6,69.5,29.74,NNW,333,0.0,0.0,90,0.00,,,0.00,0.00,VWS V14.01,2013-06-13 04:18:00,
2013-06-13 00:23:00,72.5,69.4,29.73,NNW,333,0.0,0.0,90,0.00,,,0.00,0.00,VWS V14.01,2013-06-13 04:23:00,
2013-06-13 00:28:00,72.4,69.3,29.73,NNW,333,0.0,0.0,90,0.00,,,0.00,0.00,VWS V14.01,2013-06-13 04:28:00,
2013-06-13 00:33:00,72.2,69.1,29.73,NNW,333,0.0,0.0,90,0.00,,,0.00,0.00,VWS V14.01,2013-06-13 04:33:00,
2013-06-13 00:38:00,72.1,69.0,29.73,NNW,333,0.0,0.0,90,0.00,,,0.00,0.00,VWS V14.01,2013-06-13 04:38:00,
2013-06-13 00:43:00,71.9,68.8,29.74,NNW,333,0.0,0.0,90,0.00,,,0.00,0.00,VWS V14.01,2013-06-13 04:43:00,
2013-06-13 00:48:00,71.7,68.3,29.74,NNW,333,0.0,0.0,89,0.00,,,0.00,0.00,VWS V14.01,2013-06-13 04:48:00,
2013-06-13 00:53:00,71.6,68.2,29.73,NNW,333,0.0,0.0,89,0.00,,,0.00,0.00,VWS V14.01,2013-06-13 04:53:00,
2013-06-13 00:58:00,71.4,68.3,29.73,NNW,333,0.0,0.0,90,0.00,,,0.00,0.00,VWS V14.01,2013-06-13 04:58:00,
2013-06-13 01:04:00,71.3,68.2,29.73,NNW,333,0.0,0.0,90,0.00,,,0.00,0.00,VWS V14.01,2013-06-13 05:04:00,
2013-06-13 01:09:00,71.3,68.2,29.73,NNW,333,0.0,0.0,90,0.00,,,0.00,0.00,VWS V14.01,2013-06-13 05:09:00,
2013-06-13 01:14:00,71.1,68.0,29.73,NNW,333,0.0,0.0,90,0.00,,,0.00,0.00,VWS V14.01,2013-06-13 05:14:00,
2013-06-13 01:19:00,71.0,67.9,29.72,NNW,333,0.0,0.0,90,0.00,,,0.00,0.00,VWS V14.01,2013-06-13 05:19:00,
2013-06-13 01:24:00,70.9,67.8,29.71,NNW,333,0.0,0.0,90,0.00,,,0.00,0.00,VWS V14.01,2013-06-13 05:24:00,
2013-06-13 01:29:00,70.8,67.7,29.71,NNW,333,0.0,0.0,90,0.00,,,0.00,0.00,VWS V14.01,2013-06-13 05:29:00,
2013-06-13 01:34:00,70.8,68.1,29.71,NNW,333,0.0,0.0,91,0.00,,,0.00,0.00,VWS V14.01,2013-06-13 05:34:00,
2013-06-13 01:39:00,70.7,67.9,29.71,NNW,333,0.0,0.0,91,0.00,,,0.00,0.00,VWS V14.01,2013-06-13 05:39:00,
2013-06-13 01:44:00,70.6,67.8,29.71,NNW,333,0.0,0.0,91,0.00,,,0.00,0.00,VWS V14.01,2013-06-13 05:44:00,
2013-06-13 01:49:00,70.6,67.8,29.71,NNW,333,0.0,0.0,91,0.00,,,0.00,0.00,VWS V14.01,2013-06-13 05:49:00,
2013-06-13 01:54:00,70.5,68.1,29.71,NNW,333,0.0,0.0,92,0.00,,,0.00,0.00,VWS V14.01,2013-06-13 05:54:00,
2013-06-13 01:59:00,70.5,68.1,29.71,NNW,333,0.0,0.0,92,0.00,,,0.00,0.00,VWS V14.01,2013-06-13 05:59:00,
2013-06-13 02:04:00,70.5,68.1,29.72,NNW,333,0.0,0.0,92,0.00,,,0.00,0.00,VWS V14.01,2013-06-13 06:04:00,
2013-06-13 02:10:00,70.5,68.1,29.72,NNW,333,0.0,0.0,92,0.00,,,0.00,0.00,VWS V14.01,2013-06-13 06:10:00,
2013-06-13 02:15:00,70.4,68.0,29.72,NNW,333,0.0,0.0,92,0.00,,,0.00,0.00,VWS V14.01,2013-06-13 06:15:00,
2013-06-13 02:20:00,70.5,68.4,29.72,NNW,333,0.0,0.0,93,0.00,,,0.00,0.00,VWS V14.01,2013-06-13 06:20:00,
2013-06-13 02:25:00,70.5,68.4,29.72,NNW,333,0.0,0.0,93,0.00,,,0.00,0.00,VWS V14.01,2013-06-13 06:25:00,
2013-06-13 02:30:00,70.5,68.4,29.72,NNW,333,0.0,0.0,93,0.00,,,0.00,0.00,VWS V14.01,2013-06-13 06:30:00,
2013-06-13 02:35:00,70.5,68.7,29.71,NNW,333,0.0,0.0,94,0.00,,,0.00,0.00,VWS V14.01,2013-06-13 06:35:00,
2013-06-13 02:40:00,70.5,68.7,29.72,NNW,333,0.0,0.0,94,0.00,,,0.00,0.00,VWS V14.01,2013-06-13 06:40:00,
2013-06-13 02:45:00,70.5,68.7,29.71,NNW,333,0.0,0.0,94,0.00,,,0.00,0.00,VWS V14.01,2013-06-13 06:45:00,
2013-06-13 02:50:00,70.6,68.8,29.71,NNW,333,0.0,0.0,94,0.00,,,0.00,0.00,VWS V14.01,2013-06-13 06:50:00,
2013-06-13 02:55:00,70.6,68.8,29.70,SW,217,1.0,4.0,94,0.00,,,0.00,0.00,VWS V14.01,2013-06-13 06:55:00,
2013-06-13 03:00:00,70.7,68.9,29.70,SSW,209,4.0,5.0,94,0.00,,,0.00,0.00,VWS V14.01,2013-06-13 07:00:00,
2013-06-13 03:05:00,70.8,69.3,29.70,SSW,192,2.0,6.0,95,0.00,,,0.00,0.00,VWS V14.01,2013-06-13 07:05:00,
2013-06-13 03:10:00,70.8,69.3,29.70,SW,221,1.0,1.0,95,0.01,,,0.01,0.00,VWS V14.01,2013-06-13 07:10:00,
2013-06-13 03:15:00,70.9,69.4,29.69,SSE,165,1.0,1.0,95,0.01,,,0.01,0.00,VWS V14.01,2013-06-13 07:15:00,
2013-06-13 03:22:00,70.9,69.4,29.68,SSW,205,4.0,4.0,95,0.01,,,0.01,0.00,VWS V14.01,2013-06-13 07:22:00,
2013-06-13 03:27:00,70.8,69.0,29.67,SSE,151,0.0,5.0,94,0.02,,,0.02,0.00,VWS V14.01,2013-06-13 07:27:00,
2013-06-13 03:32:00,70.8,69.0,29.68,SW,219,0.0,1.0,94,0.02,,,0.02,0.00,VWS V14.01,2013-06-13 07:32:00,
2013-06-13 03:37:00,70.7,68.9,29.68,SSW,199,0.0,4.0,94,0.03,,,0.03,0.00,VWS V14.01,2013-06-13 07:37:00,
2013-06-13 03:42:00,70.7,68.9,29.68,SSW,204,0.0,1.0,94,0.03,,,0.03,0.00,VWS V14.01,2013-06-13 07:42:00,
2013-06-13 03:47:00,70.7,68.9,29.67,SSW,194,0.0,1.0,94,0.03,,,0.03,0.00,VWS V14.01,2013-06-13 07:47:00,
2013-06-13 03:52:00,70.7,69.2,29.66,South,188,0.0,2.0,95,0.04,,,0.04,0.00,VWS V14.01,2013-06-13 07:52:00,
2013-06-13 03:57:00,70.7,69.2,29.66,South,187,0.0,0.0,95,0.04,,,0.04,0.00,VWS V14.01,2013-06-13 07:57:00,
2013-06-13 04:02:00,70.6,69.1,29.67,South,187,0.0,0.0,95,0.04,,,0.04,0.00,VWS V14.01,2013-06-13 08:02:00,
2013-06-13 04:08:00,70.6,69.1,29.66,South,187,0.0,1.0,95,0.04,,,0.04,0.00,VWS V14.01,2013-06-13 08:08:00,
2013-06-13 04:13:00,70.6,69.1,29.65,South,188,0.0,0.0,95,0.03,,,0.04,0.00,VWS V14.01,2013-06-13 08:13:00,
2013-06-13 04:18:00,70.6,69.1,29.64,South,184,0.0,6.0,95,0.03,,,0.04,0.00,VWS V14.01,2013-06-13 08:18:00,
2013-06-13 04:23:00,70.6,69.1,29.64,South,183,0.0,0.0,95,0.02,,,0.04,0.00,VWS V14.01,2013-06-13 08:23:00,
2013-06-13 04:28:00,70.6,69.1,29.64,South,183,0.0,0.0,95,0.02,,,0.04,0.00,VWS V14.01,2013-06-13 08:28:00,
2013-06-13 04:33:00,70.5,69.0,29.63,South,184,0.0,0.0,95,0.02,,,0.04,0.00,VWS V14.01,2013-06-13 08:33:00,
2013-06-13 04:38:00,70.5,69.0,29.63,South,183,0.0,0.0,95,0.01,,,0.04,0.00,VWS V14.01,2013-06-13 08:38:00,
2013-06-13 04:43:00,70.5,69.3,29.63,South,184,0.0,1.0,96,0.01,,,0.04,0.00,VWS V14.01,2013-06-13 08:43:00,
2013-06-13 04:48:00,70.4,69.2,29.62,South,184,0.0,0.0,96,0.01,,,0.04,0.00,VWS V14.01,2013-06-13 08:48:00,
2013-06-13 04:53:00,70.3,69.1,29.62,South,183,0.0,0.0,96,0.01,,,0.04,0.00,VWS V14.01,2013-06-13 08:53:00,
2013-06-13 04:59:00,70.3,69.1,29.61,South,184,0.0,0.0,96,0.00,,,0.04,0.00,VWS V14.01,2013-06-13 08:59:00,
2013-06-13 05:04:00,70.2,69.0,29.61,South,184,0.0,0.0,96,0.00,,,0.04,0.00,VWS V14.01,2013-06-13 09:04:00,
2013-06-13 05:09:00,70.1,68.9,29.61,South,184,0.0,0.0,96,0.00,,,0.04,0.00,VWS V14.01,2013-06-13 09:09:00,
2013-06-13 05:14:00,70.0,68.8,29.61,South,184,0.0,0.0,96,0.00,,,0.04,0.00,VWS V14.01,2013-06-13 09:14:00,
2013-06-13 05:19:00,69.9,68.7,29.61,South,183,0.0,0.0,96,0.00,,,0.04,0.00,VWS V14.01,2013-06-13 09:19:00,
2013-06-13 05:24:00,69.9,68.7,29.61,South,184,0.0,0.0,96,0.00,,,0.04,0.00,VWS V14.01,2013-06-13 09:24:00,
2013-06-13 05:29:00,69.8,68.6,29.61,South,184,0.0,0.0,96,0.00,,,0.04,0.00,VWS V14.01,2013-06-13 09:29:00,
2013-06-13 05:34:00,69.7,68.5,29.61,South,184,0.0,0.0,96,0.00,,,0.04,0.00,VWS V14.01,2013-06-13 09:34:00,
2013-06-13 05:39:00,69.6,68.4,29.61,South,184,0.0,0.0,96,0.00,,,0.04,0.00,VWS V14.01,2013-06-13 09:39:00,
2013-06-13 05:45:00,69.5,68.3,29.61,South,184,0.0,0.0,96,0.00,,,0.04,0.00,VWS V14.01,2013-06-13 09:45:00,
2013-06-13 05:50:00,69.4,68.2,29.61,South,183,0.0,0.0,96,0.00,,,0.04,0.00,VWS V14.01,2013-06-13 09:50:00,
2013-06-13 05:55:00,69.3,68.1,29.61,South,183,0.0,0.0,96,0.00,,,0.04,0.00,VWS V14.01,2013-06-13 09:55:00,
2013-06-13 06:00:00,69.2,68.0,29.61,South,183,0.0,0.0,96,0.00,,,0.04,5.00,VWS V14.01,2013-06-13 10:00:00,
2013-06-13 06:05:00,69.2,68.0,29.60,South,183,0.0,0.0,96,0.00,,,0.04,7.00,VWS V14.01,2013-06-13 10:05:00,
2013-06-13 06:10:00,69.2,68.0,29.60,South,184,0.0,0.0,96,0.00,,,0.04,11.00,VWS V14.01,2013-06-13 10:10:00,
2013-06-13 06:15:00,69.3,68.4,29.60,South,184,0.0,0.0,97,0.00,,,0.04,14.00,VWS V14.01,2013-06-13 10:15:00,
2013-06-13 06:20:00,69.3,68.4,29.60,South,184,0.0,0.0,97,0.00,,,0.04,16.00,VWS V14.01,2013-06-13 10:20:00,
2013-06-13 06:25:00,69.3,68.4,29.59,South,184,0.0,0.0,97,0.00,,,0.04,16.00,VWS V14.01,2013-06-13 10:25:00,
2013-06-13 06:30:00,69.3,68.4,29.59,South,184,0.0,0.0,97,0.00,,,0.04,16.00,VWS V14.01,2013-06-13 10:30:00,
2013-06-13 06:35:00,69.4,68.5,29.59,South,183,0.0,0.0,97,0.00,,,0.04,16.00,VWS V14.01,2013-06-13 10:35:00,
2013-06-13 06:40:00,69.4,68.5,29.59,South,184,0.0,0.0,97,0.00,,,0.04,14.00,VWS V14.01,2013-06-13 10:40:00,
2013-06-13 06:45:00,69.4,68.5,29.59,South,184,0.0,0.0,97,0.00,,,0.04,12.00,VWS V14.01,2013-06-13 10:45:00,
2013-06-13 06:50:00,69.5,68.6,29.59,South,183,0.0,0.0,97,0.00,,,0.04,12.00,VWS V14.01,2013-06-13 10:50:00,
2013-06-13 06:55:00,69.5,68.6,29.59,South,183,0.0,0.0,97,0.00,,,0.04,14.00,VWS V14.01,2013-06-13 10:55:00,
2013-06-13 07:00:00,69.5,68.6,29.59,SSW,196,0.0,3.0,97,0.00,,,0.04,19.00,VWS V14.01,2013-06-13 11:00:00,
2013-06-13 07:05:00,69.5,68.6,29.58,South,185,0.0,2.0,97,0.00,,,0.04,19.00,VWS V14.01,2013-06-13 11:05:00,
2013-06-13 07:10:00,69.6,68.7,29.57,SSW,210,0.0,4.0,97,0.00,,,0.04,16.00,VWS V14.01,2013-06-13 11:10:00,
2013-06-13 07:15:00,69.5,68.6,29.57,SW,220,3.0,4.0,97,0.00,,,0.04,11.00,VWS V14.01,2013-06-13 11:15:00,
2013-06-13 07:20:00,69.5,68.6,29.56,SSW,211,2.0,5.0,97,0.00,,,0.04,11.00,VWS V14.01,2013-06-13 11:20:00,
2013-06-13 07:25:00,69.5,68.6,29.57,SSW,197,0.0,4.0,97,0.00,,,0.04,11.00,VWS V14.01,2013-06-13 11:25:00,
2013-06-13 07:30:00,69.6,69.0,29.64,NW,322,11.0,19.0,98,0.00,,,0.04,0.00,VWS V14.01,2013-06-13 11:30:00,
2013-06-13 07:35:00,69.5,68.6,29.65,NNW,332,9.0,23.0,97,0.00,,,0.04,0.00,VWS V14.01,2013-06-13 11:35:00,
2013-06-13 07:40:00,69.3,68.1,29.63,NNW,347,13.0,22.0,96,0.19,,,0.23,0.00,VWS V14.01,2013-06-13 11:40:00,
2013-06-13 07:45:00,68.6,67.4,29.62,West,265,0.0,13.0,96,0.31,,,0.35,0.00,VWS V14.01,2013-06-13 11:45:00,
2013-06-13 07:50:00,68.2,67.0,29.62,SW,236,0.0,5.0,96,0.31,,,0.35,5.00,VWS V14.01,2013-06-13 11:50:00,
2013-06-13 07:55:00,68.0,66.8,29.64,SW,234,3.0,3.0,96,0.32,,,0.36,7.00,VWS V14.01,2013-06-13 11:55:00,
2013-06-13 08:01:00,67.8,66.6,29.64,West,277,0.0,1.0,96,0.32,,,0.36,16.00,VWS V14.01,2013-06-13 12:01:00,
2013-06-13 08:06:00,67.7,66.5,29.65,West,278,0.0,0.0,96,0.32,,,0.36,14.00,VWS V14.01,2013-06-13 12:06:00,
2013-06-13 08:11:00,67.6,66.4,29.64,West,273,0.0,0.0,96,0.33,,,0.37,21.00,VWS V14.01,2013-06-13 12:11:00,
2013-06-13 08:16:00,67.6,66.4,29.64,SSW,206,1.0,1.0,96,0.33,,,0.37,28.00,VWS V14.01,2013-06-13 12:16:00,
2013-06-13 08:21:00,67.6,66.7,29.62,SSW,194,0.0,1.0,97,0.34,,,0.38,32.00,VWS V14.01,2013-06-13 12:21:00,
2013-06-13 08:26:00,67.6,66.7,29.62,SSW,194,0.0,1.0,97,0.35,,,0.39,49.00,VWS V14.01,2013-06-13 12:26:00,
2013-06-13 08:31:00,67.7,66.8,29.62,SSW,194,0.0,1.0,97,0.35,,,0.39,62.00,VWS V14.01,2013-06-13 12:31:00,
2013-06-13 08:36:00,67.8,66.9,29.62,SSW,192,0.0,1.0,97,0.35,,,0.39,39.00,VWS V14.01,2013-06-13 12:36:00,
2013-06-13 08:41:00,67.7,66.8,29.61,South,188,4.0,5.0,97,0.17,,,0.40,40.00,VWS V14.01,2013-06-13 12:41:00,
2013-06-13 08:46:00,67.7,66.8,29.61,SW,231,4.0,4.0,97,0.05,,,0.40,35.00,VWS V14.01,2013-06-13 12:46:00,
2013-06-13 08:52:00,67.6,66.7,29.62,SSW,211,3.0,7.0,97,0.06,,,0.41,28.00,VWS V14.01,2013-06-13 12:52:00,
2013-06-13 08:57:00,67.6,66.7,29.60,SW,222,5.0,7.0,97,0.06,,,0.42,39.00,VWS V14.01,2013-06-13 12:57:00,
2013-06-13 09:02:00,67.6,66.7,29.59,SSW,204,5.0,12.0,97,0.06,,,0.42,37.00,VWS V14.01,2013-06-13 13:02:00,
2013-06-13 09:07:00,67.6,66.7,29.59,South,172,7.0,11.0,97,0.06,,,0.42,44.00,VWS V14.01,2013-06-13 13:07:00,
2013-06-13 09:12:00,67.7,66.8,29.57,SSW,200,4.0,12.0,97,0.07,,,0.43,47.00,VWS V14.01,2013-06-13 13:12:00,
2013-06-13 09:17:00,67.7,67.1,29.57,SSW,208,5.0,14.0,98,0.06,,,0.43,42.00,VWS V14.01,2013-06-13 13:17:00,
2013-06-13 09:22:00,67.8,67.2,29.56,South,187,5.0,9.0,98,0.05,,,0.43,32.00,VWS V14.01,2013-06-13 13:22:00,
2013-06-13 09:27:00,67.8,67.2,29.55,SSW,194,3.0,7.0,98,0.04,,,0.43,28.00,VWS V14.01,2013-06-13 13:27:00,
2013-06-13 09:32:00,67.7,66.8,29.56,SSW,212,5.0,10.0,97,0.05,,,0.44,28.00,VWS V14.01,2013-06-13 13:32:00,
2013-06-13 09:37:00,67.6,66.7,29.57,NNW,337,7.0,8.0,97,0.05,,,0.44,33.00,VWS V14.01,2013-06-13 13:37:00,
2013-06-13 09:43:00,67.7,66.8,29.60,NW,325,13.0,14.0,97,0.04,,,0.44,44.00,VWS V14.01,2013-06-13 13:43:00,
2013-06-13 09:48:00,67.7,66.8,29.57,SW,218,4.0,4.0,97,0.04,,,0.44,58.00,VWS V14.01,2013-06-13 13:48:00,
2013-06-13 09:53:00,67.7,66.8,29.56,SW,214,0.0,12.0,97,0.03,,,0.44,74.00,VWS V14.01,2013-06-13 13:53:00,
2013-06-13 09:58:00,67.7,66.8,29.56,SW,221,2.0,7.0,97,0.03,,,0.44,93.00,VWS V14.01,2013-06-13 13:58:00,
2013-06-13 10:03:00,67.7,66.5,29.56,SSW,204,5.0,7.0,96,0.03,,,0.45,95.00,VWS V14.01,2013-06-13 14:03:00,
2013-06-13 10:08:00,67.8,66.6,29.55,WSW,246,1.0,8.0,96,0.03,,,0.45,120.00,VWS V14.01,2013-06-13 14:08:00,
2013-06-13 10:13:00,67.9,66.7,29.53,SW,236,1.0,7.0,96,0.03,,,0.45,137.00,VWS V14.01,2013-06-13 14:13:00,
2013-06-13 10:18:00,68.0,66.5,29.52,SW,217,1.0,5.0,95,0.02,,,0.45,141.00,VWS V14.01,2013-06-13 14:18:00,
2013-06-13 10:23:00,68.2,66.7,29.52,SW,217,1.0,1.0,95,0.02,,,0.45,139.00,VWS V14.01,2013-06-13 14:23:00,
2013-06-13 10:28:00,68.3,66.5,29.51,South,179,2.0,2.0,94,0.02,,,0.45,105.00,VWS V14.01,2013-06-13 14:28:00,
2013-06-13 10:33:00,68.4,66.3,29.51,SSW,198,1.0,5.0,93,0.02,,,0.45,84.00,VWS V14.01,2013-06-13 14:33:00,
2013-06-13 10:38:00,68.6,66.2,29.51,South,178,2.0,10.0,92,0.01,,,0.45,105.00,VWS V14.01,2013-06-13 14:38:00,
2013-06-13 10:43:00,68.8,65.8,29.51,SSW,207,3.0,6.0,90,0.01,,,0.45,141.00,VWS V14.01,2013-06-13 14:43:00,
2013-06-13 10:49:00,69.0,65.9,29.51,SSW,210,3.0,4.0,90,0.01,,,0.45,192.00,VWS V14.01,2013-06-13 14:49:00,
2013-06-13 10:54:00,69.2,65.5,29.52,West,281,0.0,8.0,88,0.01,,,0.45,295.00,VWS V14.01,2013-06-13 14:54:00,
2013-06-13 10:59:00,69.8,66.1,29.52,SSW,211,0.0,3.0,88,0.01,,,0.45,381.00,VWS V14.01,2013-06-13 14:59:00,
2013-06-13 11:04:00,70.7,66.7,29.53,WSW,255,3.0,9.0,87,0.00,,,0.45,415.00,VWS V14.01,2013-06-13 15:04:00,
2013-06-13 11:09:00,71.4,67.0,29.52,West,269,1.0,9.0,86,0.00,,,0.45,388.00,VWS V14.01,2013-06-13 15:09:00,
2013-06-13 11:14:00,72.2,67.1,29.52,SW,218,2.0,13.0,84,0.00,,,0.45,369.00,VWS V14.01,2013-06-13 15:14:00,
2013-06-13 11:19:00,72.6,67.5,29.53,South,184,8.0,8.0,84,0.00,,,0.45,304.00,VWS V14.01,2013-06-13 15:19:00,
2013-06-13 11:24:00,73.3,68.5,29.53,SW,214,6.0,7.0,85,0.00,,,0.45,904.00,VWS V14.01,2013-06-13 15:24:00,
2013-06-13 11:29:00,74.7,69.6,29.53,WSW,258,7.0,10.0,84,0.00,,,0.45,461.00,VWS V14.01,2013-06-13 15:29:00,
2013-06-13 11:34:00,75.2,68.6,29.52,WSW,240,4.0,12.0,80,0.00,,,0.45,821.00,VWS V14.01,2013-06-13 15:34:00,
2013-06-13 11:39:00,75.7,68.7,29.52,SSW,199,3.0,8.0,79,0.00,,,0.45,893.00,VWS V14.01,2013-06-13 15:39:00,
2013-06-13 11:45:00,76.6,70.0,29.52,SSW,209,2.0,8.0,80,0.00,,,0.45,1034.00,VWS V14.01,2013-06-13 15:45:00,
2013-06-13 11:50:00,77.0,69.6,29.51,SSE,159,7.0,8.0,78,0.00,,,0.45,990.00,VWS V14.01,2013-06-13 15:50:00,
2013-06-13 11:55:00,77.3,68.8,29.50,SSW,206,5.0,11.0,75,0.00,,,0.45,367.00,VWS V14.01,2013-06-13 15:55:00,
2013-06-13 12:00:00,77.1,67.8,29.48,SSW,198,6.0,13.0,73,0.00,,,0.45,257.00,VWS V14.01,2013-06-13 16:00:00,
2013-06-13 12:05:00,76.6,67.3,29.47,WNW,284,2.0,14.0,73,0.00,,,0.45,313.00,VWS V14.01,2013-06-13 16:05:00,
2013-06-13 12:10:00,76.3,67.8,29.49,SW,234,6.0,10.0,75,0.00,,,0.45,369.00,VWS V14.01,2013-06-13 16:10:00,
2013-06-13 12:15:00,76.3,68.6,29.49,WSW,244,1.0,13.0,77,0.00,,,0.45,399.00,VWS V14.01,2013-06-13 16:15:00,
2013-06-13 12:20:00,76.8,69.1,29.50,WSW,242,0.0,7.0,77,0.00,,,0.45,555.00,VWS V14.01,2013-06-13 16:20:00,
2013-06-13 12:25:00,77.4,69.2,29.49,WSW,248,4.0,8.0,76,0.00,,,0.45,427.00,VWS V14.01,2013-06-13 16:25:00,
2013-06-13 12:30:00,78.1,69.1,29.49,NNE,26,4.0,11.0,74,0.00,,,0.45,784.00,VWS V14.01,2013-06-13 16:30:00,
2013-06-13 12:35:00,78.9,69.5,29.48,SSW,202,4.0,10.0,73,0.00,,,0.45,967.00,VWS V14.01,2013-06-13 16:35:00,
2013-06-13 12:40:00,79.3,69.5,29.48,SW,227,7.0,14.0,72,0.00,,,0.45,1151.00,VWS V14.01,2013-06-13 16:40:00,
2013-06-13 12:45:00,80.0,70.6,29.48,WNW,300,4.0,17.0,73,0.00,,,0.45,861.00,VWS V14.01,2013-06-13 16:45:00,
2013-06-13 12:50:00,80.4,71.0,29.48,WSW,238,3.0,14.0,73,0.00,,,0.45,1021.00,VWS V14.01,2013-06-13 16:50:00,
2013-06-13 12:55:00,81.0,69.9,29.48,WNW,299,3.0,9.0,69,0.00,,,0.45,1055.00,VWS V14.01,2013-06-13 16:55:00,
2013-06-13 13:00:00,81.5,70.8,29.48,NW,325,10.0,14.0,70,0.00,,,0.45,1056.00,VWS V14.01,2013-06-13 17:00:00,
2013-06-13 13:05:00,81.3,69.7,29.48,WSW,240,4.0,10.0,68,0.00,,,0.45,1232.00,VWS V14.01,2013-06-13 17:05:00,
2013-06-13 13:11:00,81.1,70.0,29.48,SSW,206,3.0,4.0,69,0.00,,,0.45,596.00,VWS V14.01,2013-06-13 17:11:00,
2013-06-13 13:16:00,80.9,70.2,29.48,NW,325,2.0,4.0,70,0.00,,,0.45,445.00,VWS V14.01,2013-06-13 17:16:00,
2013-06-13 13:21:00,80.5,69.4,29.48,West,264,4.0,7.0,69,0.00,,,0.45,492.00,VWS V14.01,2013-06-13 17:21:00,
2013-06-13 13:26:00,80.1,69.4,29.48,NNW,336,10.0,10.0,70,0.00,,,0.45,497.00,VWS V14.01,2013-06-13 17:26:00,
2013-06-13 13:31:00,79.6,68.5,29.48,South,190,9.0,11.0,69,0.00,,,0.45,513.00,VWS V14.01,2013-06-13 17:31:00,
2013-06-13 13:36:00,79.7,69.9,29.48,NNW,327,10.0,14.0,72,0.00,,,0.45,1014.00,VWS V14.01,2013-06-13 17:36:00,
2013-06-13 13:41:00,79.8,68.7,29.48,NW,322,3.0,14.0,69,0.00,,,0.45,935.00,VWS V14.01,2013-06-13 17:41:00,
2013-06-13 13:46:00,80.5,70.7,29.48,NW,306,13.0,14.0,72,0.00,,,0.45,933.00,VWS V14.01,2013-06-13 17:46:00,
2013-06-13 13:51:00,80.6,69.5,29.48,WNW,299,3.0,12.0,69,0.00,,,0.45,937.00,VWS V14.01,2013-06-13 17:51:00,
2013-06-13 13:56:00,80.9,69.4,29.48,NNW,336,15.0,15.0,68,0.00,,,0.45,972.00,VWS V14.01,2013-06-13 17:56:00,
2013-06-13 14:01:00,81.1,70.4,29.48,NNW,330,5.0,11.0,70,0.00,,,0.45,796.00,VWS V14.01,2013-06-13 18:01:00,
2013-06-13 14:06:00,81.5,70.4,29.48,WNW,292,5.0,10.0,69,0.00,,,0.45,522.00,VWS V14.01,2013-06-13 18:06:00,
2013-06-13 14:12:00,81.7,69.7,29.48,NW,312,15.0,19.0,67,0.00,,,0.45,1051.00,VWS V14.01,2013-06-13 18:12:00,
2013-06-13 14:17:00,81.7,69.7,29.48,West,269,7.0,16.0,67,0.00,,,0.45,909.00,VWS V14.01,2013-06-13 18:17:00,
2013-06-13 14:22:00,81.6,69.2,29.47,WNW,288,9.0,12.0,66,0.00,,,0.45,981.00,VWS V14.01,2013-06-13 18:22:00,
2013-06-13 14:27:00,81.9,70.7,29.47,NW,323,4.0,6.0,69,0.00,,,0.45,1014.00,VWS V14.01,2013-06-13 18:27:00,
2013-06-13 14:32:00,82.0,70.4,29.47,NNW,333,7.0,10.0,68,0.00,,,0.45,714.00,VWS V14.01,2013-06-13 18:32:00,
2013-06-13 14:37:00,81.4,69.0,29.48,NW,323,3.0,14.0,66,0.00,,,0.45,515.00,VWS V14.01,2013-06-13 18:37:00,
2013-06-13 14:42:00,81.0,69.0,29.48,West,273,0.0,10.0,67,0.00,,,0.45,540.00,VWS V14.01,2013-06-13 18:42:00,
2013-06-13 14:47:00,80.8,69.3,29.47,West,268,0.0,11.0,68,0.00,,,0.45,294.00,VWS V14.01,2013-06-13 18:47:00,
2013-06-13 14:52:00,80.3,69.2,29.48,WNW,301,5.0,9.0,69,0.00,,,0.45,232.00,VWS V14.01,2013-06-13 18:52:00,
2013-06-13 14:57:00,79.9,68.8,29.47,NW,316,5.0,9.0,69,0.00,,,0.45,155.00,VWS V14.01,2013-06-13 18:57:00,
2013-06-13 15:02:00,79.3,68.7,29.47,West,281,2.0,9.0,70,0.00,,,0.45,107.00,VWS V14.01,2013-06-13 19:02:00,
2013-06-13 15:08:00,78.9,68.7,29.47,NW,307,4.0,6.0,71,0.00,,,0.45,100.00,VWS V14.01,2013-06-13 19:08:00,
2013-06-13 15:13:00,78.6,68.8,29.48,WSW,257,0.0,4.0,72,0.00,,,0.45,88.00,VWS V14.01,2013-06-13 19:13:00,
2013-06-13 15:18:00,78.2,68.4,29.48,WNW,288,2.0,10.0,72,0.00,,,0.45,67.00,VWS V14.01,2013-06-13 19:18:00,
2013-06-13 15:23:00,77.8,68.5,29.48,NNW,334,2.0,8.0,73,0.00,,,0.45,40.00,VWS V14.01,2013-06-13 19:23:00,
2013-06-13 15:28:00,77.2,68.3,29.47,NW,317,1.0,9.0,74,0.00,,,0.45,30.00,VWS V14.01,2013-06-13 19:28:00,
2013-06-13 15:33:00,76.8,68.3,29.46,WNW,283,0.0,5.0,75,0.00,,,0.45,30.00,VWS V14.01,2013-06-13 19:33:00,
2013-06-13 15:38:00,76.3,68.9,29.46,West,281,0.0,10.0,78,0.01,,,0.46,42.00,VWS V14.01,2013-06-13 19:38:00,
2013-06-13 15:43:00,75.7,68.7,29.46,West,273,0.0,5.0,79,0.02,,,0.47,70.00,VWS V14.01,2013-06-13 19:43:00,
2013-06-13 15:48:00,75.3,69.1,29.46,WSW,254,0.0,2.0,81,0.02,,,0.47,84.00,VWS V14.01,2013-06-13 19:48:00,
2013-06-13 15:53:00,75.0,69.1,29.46,WSW,254,0.0,0.0,82,0.03,,,0.48,111.00,VWS V14.01,2013-06-13 19:53:00,
2013-06-13 15:59:00,74.7,69.6,29.45,WSW,254,1.0,2.0,84,0.04,,,0.49,162.00,VWS V14.01,2013-06-13 19:59:00,
2013-06-13 16:04:00,74.5,69.7,29.45,WSW,254,0.0,1.0,85,0.04,,,0.49,218.00,VWS V14.01,2013-06-13 20:04:00,
2013-06-13 16:09:00,74.2,70.4,29.45,WSW,254,0.0,0.0,88,0.04,,,0.49,308.00,VWS V14.01,2013-06-13 20:09:00,
2013-06-13 16:14:00,74.2,70.8,29.45,WSW,255,0.0,1.0,89,0.04,,,0.49,478.00,VWS V14.01,2013-06-13 20:14:00,
2013-06-13 16:19:00,74.5,71.4,29.44,WSW,254,0.0,2.0,90,0.04,,,0.49,381.00,VWS V14.01,2013-06-13 20:19:00,
2013-06-13 16:24:00,74.9,71.8,29.44,WNW,283,1.0,5.0,90,0.04,,,0.49,357.00,VWS V14.01,2013-06-13 20:24:00,
2013-06-13 16:29:00,74.8,71.0,29.44,WNW,295,0.0,4.0,88,0.04,,,0.49,276.00,VWS V14.01,2013-06-13 20:29:00,
2013-06-13 16:34:00,74.8,71.0,29.44,NW,308,2.0,5.0,88,0.04,,,0.49,190.00,VWS V14.01,2013-06-13 20:34:00,
2013-06-13 16:39:00,74.6,70.8,29.45,NNW,329,0.0,6.0,88,0.03,,,0.49,134.00,VWS V14.01,2013-06-13 20:39:00,
2013-06-13 16:45:00,74.3,70.5,29.45,NW,311,0.0,3.0,88,0.03,,,0.49,105.00,VWS V14.01,2013-06-13 20:45:00,
2013-06-13 16:50:00,74.2,70.4,29.46,SW,234,0.0,3.0,88,0.02,,,0.49,105.00,VWS V14.01,2013-06-13 20:50:00,
2013-06-13 16:55:00,73.9,70.1,29.46,West,278,0.0,5.0,88,0.01,,,0.49,128.00,VWS V14.01,2013-06-13 20:55:00,
2013-06-13 17:00:00,73.7,69.9,29.46,WNW,298,3.0,3.0,88,0.01,,,0.49,146.00,VWS V14.01,2013-06-13 21:00:00,
2013-06-13 17:05:00,73.5,69.7,29.46,WNW,300,2.0,5.0,88,0.00,,,0.49,144.00,VWS V14.01,2013-06-13 21:05:00,
2013-06-13 17:10:00,73.4,69.6,29.46,NNW,327,3.0,6.0,88,0.00,,,0.49,125.00,VWS V14.01,2013-06-13 21:10:00,
2013-06-13 17:15:00,73.2,69.4,29.46,WNW,288,0.0,6.0,88,0.00,,,0.49,116.00,VWS V14.01,2013-06-13 21:15:00,
2013-06-13 17:20:00,73.1,69.0,29.46,West,281,0.0,5.0,87,0.00,,,0.49,120.00,VWS V14.01,2013-06-13 21:20:00,
2013-06-13 17:25:00,73.0,68.9,29.46,WNW,283,1.0,4.0,87,0.00,,,0.49,123.00,VWS V14.01,2013-06-13 21:25:00,
2013-06-13 17:30:00,72.9,68.8,29.46,NW,321,2.0,6.0,87,0.00,,,0.49,118.00,VWS V14.01,2013-06-13 21:30:00,
2013-06-13 17:35:00,72.9,68.8,29.46,NW,321,0.0,5.0,87,0.00,,,0.49,118.00,VWS V14.01,2013-06-13 21:35:00,
2013-06-13 17:40:00,72.9,68.8,29.46,WNW,300,1.0,4.0,87,0.00,,,0.49,98.00,VWS V14.01,2013-06-13 21:40:00,
2013-06-13 17:46:00,72.8,68.7,29.46,NW,315,0.0,0.0,87,0.00,,,0.49,88.00,VWS V14.01,2013-06-13 21:46:00,
2013-06-13 17:51:00,72.8,68.4,29.46,NW,326,3.0,4.0,86,0.00,,,0.49,67.00,VWS V14.01,2013-06-13 21:51:00,
2013-06-13 17:56:00,72.6,68.2,29.46,NNW,327,7.0,8.0,86,0.00,,,0.49,56.00,VWS V14.01,2013-06-13 21:56:00,
2013-06-13 18:01:00,72.4,68.0,29.46,NW,307,3.0,5.0,86,0.00,,,0.49,42.00,VWS V14.01,2013-06-13 22:01:00,
2013-06-13 18:06:00,72.3,67.9,29.46,NNW,333,5.0,6.0,86,0.01,,,0.50,63.00,VWS V14.01,2013-06-13 22:06:00,
2013-06-13 18:11:00,72.0,67.9,29.46,NNW,331,3.0,3.0,87,0.01,,,0.50,102.00,VWS V14.01,2013-06-13 22:11:00,
2013-06-13 18:16:00,71.8,68.1,29.46,NW,322,5.0,7.0,88,0.01,,,0.50,100.00,VWS V14.01,2013-06-13 22:16:00,
2013-06-13 18:21:00,71.5,67.4,29.47,WNW,298,9.0,13.0,87,0.01,,,0.50,79.00,VWS V14.01,2013-06-13 22:21:00,
2013-06-13 18:26:00,71.3,66.2,29.47,WNW,303,7.0,11.0,84,0.01,,,0.50,72.00,VWS V14.01,2013-06-13 22:26:00,
2013-06-13 18:31:00,71.3,65.5,29.48,NNW,329,9.0,10.0,82,0.01,,,0.50,72.00,VWS V14.01,2013-06-13 22:31:00,
2013-06-13 18:36:00,71.3,65.5,29.48,North,360,8.0,15.0,82,0.01,,,0.50,81.00,VWS V14.01,2013-06-13 22:36:00,
2013-06-13 18:42:00,71.3,65.2,29.49,NW,319,8.0,16.0,81,0.01,,,0.50,81.00,VWS V14.01,2013-06-13 22:42:00,
2013-06-13 18:47:00,71.1,64.6,29.50,NW,326,6.0,14.0,80,0.01,,,0.50,72.00,VWS V14.01,2013-06-13 22:47:00,
2013-06-13 18:52:00,70.9,64.4,29.51,NW,323,9.0,13.0,80,0.01,,,0.50,76.00,VWS V14.01,2013-06-13 22:52:00,
2013-06-13 18:57:00,70.5,63.0,29.51,NNW,332,13.0,21.0,77,0.01,,,0.50,79.00,VWS V14.01,2013-06-13 22:57:00,
2013-06-13 19:02:00,70.3,62.4,29.51,North,355,8.0,14.0,76,0.01,,,0.50,77.00,VWS V14.01,2013-06-13 23:02:00,
2013-06-13 19:07:00,70.1,62.2,29.51,NNW,338,6.0,13.0,76,0.00,,,0.50,60.00,VWS V14.01,2013-06-13 23:07:00,
2013-06-13 19:12:00,69.9,62.0,29.51,NNW,327,12.0,19.0,76,0.00,,,0.50,60.00,VWS V14.01,2013-06-13 23:12:00,
2013-06-13 19:17:00,69.7,62.2,29.52,WNW,291,8.0,13.0,77,0.00,,,0.50,54.00,VWS V14.01,2013-06-13 23:17:00,
2013-06-13 19:22:00,69.5,62.0,29.52,NW,313,11.0,12.0,77,0.00,,,0.50,35.00,VWS V14.01,2013-06-13 23:22:00,
2013-06-13 19:27:00,69.3,62.2,29.52,North,351,7.0,11.0,78,0.00,,,0.50,25.00,VWS V14.01,2013-06-13 23:27:00,
2013-06-13 19:32:00,69.2,62.1,29.52,NW,306,3.0,8.0,78,0.00,,,0.50,23.00,VWS V14.01,2013-06-13 23:32:00,
2013-06-13 19:38:00,69.0,61.9,29.52,NNW,330,7.0,8.0,78,0.00,,,0.50,26.00,VWS V14.01,2013-06-13 23:38:00,
2013-06-13 19:43:00,68.9,61.8,29.52,NNW,332,10.0,15.0,78,0.00,,,0.50,33.00,VWS V14.01,2013-06-13 23:43:00,
2013-06-13 19:48:00,68.9,61.8,29.52,North,351,11.0,11.0,78,0.00,,,0.50,37.00,VWS V14.01,2013-06-13 23:48:00,
2013-06-13 19:53:00,68.9,61.4,29.52,NNW,329,4.0,14.0,77,0.00,,,0.50,40.00,VWS V14.01,2013-06-13 23:53:00,
2013-06-13 19:58:00,68.9,61.4,29.52,NW,322,6.0,7.0,77,0.00,,,0.50,67.00,VWS V14.01,2013-06-13 23:58:00,
2013-06-13 20:03:00,69.0,61.1,29.53,WNW,302,6.0,9.0,76,0.00,,,0.50,70.00,VWS V14.01,2013-06-14 00:03:00,
2013-06-13 20:08:00,69.1,61.2,29.53,NW,319,4.0,6.0,76,0.00,,,0.50,54.00,VWS V14.01,2013-06-14 00:08:00,
2013-06-13 20:13:00,69.2,61.0,29.53,NNW,337,5.0,10.0,75,0.00,,,0.50,35.00,VWS V14.01,2013-06-14 00:13:00,
2013-06-13 20:18:00,69.2,61.0,29.53,NNW,336,7.0,8.0,75,0.00,,,0.50,26.00,VWS V14.01,2013-06-14 00:18:00,
2013-06-13 20:23:00,69.2,61.0,29.53,WNW,288,8.0,10.0,75,0.00,,,0.50,25.00,VWS V14.01,2013-06-14 00:23:00,
2013-06-13 20:28:00,69.1,60.8,29.53,NNW,327,5.0,10.0,75,0.00,,,0.50,18.00,VWS V14.01,2013-06-14 00:28:00,
2013-06-13 20:34:00,69.0,60.8,29.53,NW,304,10.0,12.0,75,0.00,,,0.50,11.00,VWS V14.01,2013-06-14 00:34:00,
2013-06-13 20:39:00,69.0,60.8,29.54,NNW,338,0.0,10.0,75,0.00,,,0.50,7.00,VWS V14.01,2013-06-14 00:39:00,
2013-06-13 20:44:00,68.9,60.7,29.54,NNW,335,5.0,7.0,75,0.00,,,0.50,0.00,VWS V14.01,2013-06-14 00:44:00,
2013-06-13 20:49:00,68.8,60.6,29.54,NNW,335,7.0,11.0,75,0.00,,,0.50,0.00,VWS V14.01,2013-06-14 00:49:00,
2013-06-13 20:54:00,68.7,60.5,29.54,NW,316,5.0,11.0,75,0.00,,,0.50,0.00,VWS V14.01,2013-06-14 00:54:00,
2013-06-13 20:59:00,68.6,60.4,29.55,NW,321,4.0,10.0,75,0.00,,,0.50,0.00,VWS V14.01,2013-06-14 00:59:00,
2013-06-13 21:04:00,68.6,60.4,29.55,NNW,331,5.0,7.0,75,0.00,,,0.50,0.00,VWS V14.01,2013-06-14 01:04:00,
2013-06-13 21:09:00,68.5,60.3,29.54,WNW,286,9.0,16.0,75,0.00,,,0.50,0.00,VWS V14.01,2013-06-14 01:09:00,
2013-06-13 21:14:00,68.6,60.4,29.55,NW,322,6.0,10.0,75,0.00,,,0.50,0.00,VWS V14.01,2013-06-14 01:14:00,
2013-06-13 21:19:00,68.6,60.4,29.56,NNW,347,8.0,12.0,75,0.00,,,0.50,0.00,VWS V14.01,2013-06-14 01:19:00,
2013-06-13 21:24:00,68.6,60.0,29.56,WNW,291,8.0,12.0,74,0.00,,,0.50,0.00,VWS V14.01,2013-06-14 01:24:00,
2013-06-13 21:29:00,68.6,60.4,29.56,NW,317,2.0,8.0,75,0.00,,,0.50,0.00,VWS V14.01,2013-06-14 01:29:00,
2013-06-13 21:35:00,68.5,59.9,29.56,NNW,333,4.0,14.0,74,0.00,,,0.50,0.00,VWS V14.01,2013-06-14 01:35:00,
2013-06-13 21:40:00,68.4,59.8,29.56,NNW,327,7.0,13.0,74,0.00,,,0.50,0.00,VWS V14.01,2013-06-14 01:40:00,
2013-06-13 21:45:00,68.3,59.7,29.56,NW,326,3.0,8.0,74,0.00,,,0.50,0.00,VWS V14.01,2013-06-14 01:45:00,
2013-06-13 21:50:00,68.3,59.7,29.56,NW,325,7.0,10.0,74,0.00,,,0.50,0.00,VWS V14.01,2013-06-14 01:50:00,
2013-06-13 21:55:00,68.2,60.0,29.56,NW,311,7.0,7.0,75,0.00,,,0.50,0.00,VWS V14.01,2013-06-14 01:55:00,
2013-06-13 22:00:00,68.1,59.5,29.57,WNW,298,2.0,12.0,74,0.00,,,0.50,0.00,VWS V14.01,2013-06-14 02:00:00,
2013-06-13 22:05:00,68.1,59.1,29.57,NNW,329,4.0,14.0,73,0.00,,,0.50,0.00,VWS V14.01,2013-06-14 02:05:00,
2013-06-13 22:10:00,68.2,59.2,29.57,North,349,8.0,14.0,73,0.00,,,0.50,0.00,VWS V14.01,2013-06-14 02:10:00,
2013-06-13 22:15:00,68.2,58.8,29.57,NW,311,6.0,15.0,72,0.00,,,0.50,0.00,VWS V14.01,2013-06-14 02:15:00,
2013-06-13 22:20:00,68.1,58.3,29.56,WNW,302,5.0,17.0,71,0.00,,,0.50,0.00,VWS V14.01,2013-06-14 02:20:00,
2013-06-13 22:25:00,68.2,58.5,29.57,WNW,299,11.0,19.0,71,0.00,,,0.50,0.00,VWS V14.01,2013-06-14 02:25:00,
2013-06-13 22:30:00,68.2,58.0,29.56,NNW,332,10.0,14.0,70,0.00,,,0.50,0.00,VWS V14.01,2013-06-14 02:30:00,
2013-06-13 22:35:00,68.1,58.0,29.56,NNW,347,5.0,20.0,70,0.00,,,0.50,0.00,VWS V14.01,2013-06-14 02:35:00,
2013-06-13 22:40:00,68.1,58.0,29.56,North,360,5.0,16.0,70,0.00,,,0.50,0.00,VWS V14.01,2013-06-14 02:40:00,
2013-06-13 22:45:00,68.0,57.9,29.56,WNW,294,9.0,13.0,70,0.00,,,0.50,0.00,VWS V14.01,2013-06-14 02:45:00,
2013-06-13 22:50:00,67.9,57.8,29.57,NNW,334,8.0,8.0,70,0.00,,,0.50,0.00,VWS V14.01,2013-06-14 02:50:00,
2013-06-13 22:55:00,67.9,57.8,29.56,NW,326,8.0,13.0,70,0.00,,,0.50,0.00,VWS V14.01,2013-06-14 02:55:00,
2013-06-13 23:00:00,67.8,58.1,29.56,NW,321,5.0,14.0,71,0.00,,,0.50,0.00,VWS V14.01,2013-06-14 03:00:00,
2013-06-13 23:05:00,67.7,57.6,29.57,North,360,5.0,17.0,70,0.00,,,0.50,0.00,VWS V14.01,2013-06-14 03:05:00,
2013-06-13 23:10:00,67.6,57.9,29.57,NW,325,4.0,11.0,71,0.00,,,0.50,0.00,VWS V14.01,2013-06-14 03:10:00,
2013-06-13 23:15:00,67.5,57.8,29.57,NNW,329,7.0,11.0,71,0.00,,,0.50,0.00,VWS V14.01,2013-06-14 03:15:00,
2013-06-13 23:20:00,67.5,57.8,29.57,NW,325,7.0,13.0,71,0.00,,,0.50,0.00,VWS V14.01,2013-06-14 03:20:00,
2013-06-13 23:25:00,67.4,57.7,29.57,North,355,5.0,11.0,71,0.00,,,0.50,0.00,VWS V14.01,2013-06-14 03:25:00,
2013-06-13 23:30:00,67.4,57.7,29.58,NNW,327,4.0,9.0,71,0.00,,,0.50,0.00,VWS V14.01,2013-06-14 03:30:00,
2013-06-13 23:35:00,67.3,57.6,29.58,NNW,340,10.0,13.0,71,0.00,,,0.50,0.00,VWS V14.01,2013-06-14 03:35:00,
2013-06-13 23:40:00,67.3,57.6,29.58,NNW,346,7.0,10.0,71,0.00,,,0.50,0.00,VWS V14.01,2013-06-14 03:40:00,
2013-06-13 23:45:00,67.3,57.6,29.58,NNW,330,5.0,13.0,71,0.00,,,0.50,0.00,VWS V14.01,2013-06-14 03:45:00,
2013-06-13 23:50:00,67.3,57.6,29.59,NW,309,4.0,10.0,71,0.00,,,0.50,0.00,VWS V14.01,2013-06-14 03:50:00,
2013-06-13 23:55:00,67.3,57.6,29.59,North,349,8.0,11.0,71,0.00,,,0.50,0.00,VWS V14.01,2013-06-14 03:55:00,